Greensboro, NC

12:14 AM EST on January 24, 2017 (GMT -0500)
Piedmont Triad International

Weather History for KGSO - February, 2014

Change the Weather History Date:

Wednesday, February 19, 2014

  Actual Average Record
Temperature  
Mean Temperature 58 °F 43 °F  
Max Temperature 71 °F 53 °F 74 °F (1939)
Min Temperature 45 °F 33 °F 9 °F (2015)
Degree Days  
Heating Degree Days 7 22  
Month to date heating degree days 468 447  
Since 1 July heating degree days 2806 2670  
Cooling Degree Days 0 0  
Month to date cooling degree days 0 0  
Year to date cooling degree days 0 0  
Growing Degree Days 8 (Base 50)    
Moisture  
Dew Point 45 °F    
Average Humidity 72    
Maximum Humidity 100    
Minimum Humidity 43    
Precipitation  
Precipitation 0.29 in 0.11 in 1.23 in (1981)
Month to date precipitation 2.03 1.93  
Year to date precipitation 6.01 4.99  
Snow  
Snow 0.00 in 0.10 in 1.60 in (2012)
Month to date snowfall 9.0 1.7  
Since 1 July snowfall 10.6 6.0  
Snow Depth 0.00 in    
Sea Level Pressure  
Sea Level Pressure 29.96 in    
Wind  
Wind Speed 8 mph (SW)    
Max Wind Speed 22 mph    
Max Gust Speed 29 mph    
Visibility 6 miles    
Events Fog , Rain , Thunderstorm    
T = Trace of Precipitation, MM = Missing Value Source: NWS Daily Summary

Daily Weather History Graph

Daily Weather History Graph

Search for Another Location

Airport or City:

Trip Planner

Search our weather history database for the weather conditions in past years. The results will help you decide how hot, cold, wet, or windy it might be!

Date:

Astronomy

Feb. 19, 2014 Rise Set
Actual Time 7:02 AM EST 6:05 PM EST
Civil Twilight 6:36 AM EST 6:31 PM EST
Nautical Twilight 6:06 AM EST 7:01 PM EST
Astronomical Twilight 5:36 AM EST 7:30 PM EST
Moon 10:46 PM EST (2/19) 9:16 AM EST (2/19)
Length of Visible Light 11h 54m
Length of Day
11h 02m
Waning Gibbous, 80% of the Moon is Illuminated
Feb 19
Waning Gibbous
Feb 22
Last Quarter
Mar 1
New
Mar 8
First Quarter
Mar 16
Full

Hourly Weather History & Observations

Time (EST) Temp. Windchill Dew Point Humidity Pressure Visibility Wind Dir Wind Speed Gust Speed Precip Events Conditions
12:54 AM 46.0 °F 43.9 °F 28.9 °F 51% 30.05 in 10.0 mi South 4.6 mph - N/A   Mostly Cloudy
1:54 AM 46.9 °F - 33.1 °F 59% 30.02 in 10.0 mi South 4.6 mph - N/A   Overcast
2:54 AM 46.9 °F - 33.1 °F 59% 29.99 in 10.0 mi Calm Calm - N/A   Overcast
3:31 AM 46.4 °F 44.3 °F 35.6 °F 66% 29.98 in 10.0 mi West 4.6 mph - 0.00 in Rain , Thunderstorm Light Thunderstorms and Rain
3:43 AM 44.6 °F 38.8 °F 39.2 °F 81% 29.97 in 1.0 mi South 11.5 mph - 0.05 in Rain , Thunderstorm Heavy Thunderstorms and Rain
3:46 AM 44.6 °F 38.8 °F 39.2 °F 81% 29.97 in 1.0 mi South 11.5 mph - 0.15 in Rain , Thunderstorm Heavy Thunderstorms and Rain
3:52 AM 44.6 °F 38.4 °F 39.2 °F 81% 29.95 in 3.0 mi SSE 12.7 mph - 0.23 in Rain , Thunderstorm Light Thunderstorms and Rain
3:54 AM 45.0 °F 39.3 °F 41.0 °F 86% 29.94 in 3.0 mi SSE 11.5 mph - 0.23 in Rain , Thunderstorm Light Thunderstorms and Rain
4:15 AM 46.4 °F 43.5 °F 42.8 °F 87% 29.94 in 9.0 mi SSW 5.8 mph - 0.00 in   Overcast
4:54 AM 46.0 °F 43.9 °F 43.0 °F 89% 29.95 in 8.0 mi South 4.6 mph - 0.00 in Rain Light Rain
5:14 AM 46.4 °F - 44.6 °F 93% 29.93 in 8.0 mi Calm Calm - 0.00 in Rain Light Rain
5:21 AM 46.4 °F - 44.6 °F 93% 29.93 in 6.0 mi Calm Calm - 0.01 in Rain Light Rain
5:54 AM 46.0 °F 44.8 °F 44.1 °F 93% 29.95 in 5.0 mi WSW 3.5 mph - 0.01 in   Overcast
6:45 AM 46.4 °F 43.5 °F 44.6 °F 93% 29.94 in 3.0 mi South 5.8 mph - N/A   Overcast
6:54 AM 46.9 °F - 46.0 °F 97% 29.93 in 3.0 mi South 4.6 mph - N/A   Overcast
7:07 AM 46.4 °F 43.5 °F 46.4 °F 100% 29.94 in 2.5 mi South 5.8 mph - N/A   Overcast
7:19 AM 46.4 °F 43.5 °F 46.4 °F 100% 29.93 in 1.0 mi SSW 5.8 mph - N/A   Overcast
7:34 AM 48.2 °F - 46.4 °F 93% 29.93 in 0.2 mi SSW 5.8 mph - N/A Fog Fog
7:54 AM 48.9 °F - 48.0 °F 97% 29.94 in 0.2 mi SW 3.5 mph - N/A Fog Fog
8:54 AM 48.9 °F - 48.0 °F 97% 29.95 in 0.2 mi WNW 3.5 mph - 0.02 in Fog , Rain Light Rain
9:38 AM 51.8 °F - 48.2 °F 88% 29.93 in 1.5 mi SW 5.8 mph - 0.03 in   Overcast
9:54 AM 51.1 °F - 50.0 °F 96% 29.94 in 1.8 mi WSW 6.9 mph - 0.03 in   Overcast
10:26 AM 53.6 °F - 51.8 °F 94% 29.93 in 2.0 mi SW 11.5 mph - N/A   Overcast
10:46 AM 55.4 °F - 53.6 °F 94% 29.94 in 3.0 mi SW 11.5 mph - N/A   Overcast
10:54 AM 55.9 °F - 54.0 °F 93% 29.93 in 3.0 mi SW 10.4 mph - N/A   Overcast
11:31 AM 57.2 °F - 53.6 °F 88% 29.94 in 4.0 mi SW 13.8 mph - N/A   Overcast
11:54 AM 59.0 °F - 55.0 °F 87% 29.93 in 5.0 mi WSW 16.1 mph 20.7 mph N/A   Overcast
12:37 PM 62.6 °F - 55.4 °F 77% 29.92 in 7.0 mi WSW 15.0 mph - N/A   Mostly Cloudy
12:54 PM 64.0 °F - 55.9 °F 75% 29.91 in 7.0 mi WSW 18.4 mph 28.8 mph N/A   Mostly Cloudy
1:54 PM 66.0 °F - 55.0 °F 68% 29.89 in 10.0 mi SW 17.3 mph 24.2 mph N/A   Overcast
2:54 PM 68.0 °F - 54.0 °F 61% 29.89 in 10.0 mi West 15.0 mph - N/A   Overcast
3:54 PM 71.1 °F - 51.1 °F 49% 29.90 in 10.0 mi West 20.7 mph 26.5 mph N/A   Overcast
4:54 PM 70.0 °F - 48.9 °F 47% 29.91 in 10.0 mi West 12.7 mph - N/A   Mostly Cloudy
5:54 PM 66.9 °F - 45.0 °F 45% 29.94 in 10.0 mi West 8.1 mph - N/A   Mostly Cloudy
6:54 PM 64.0 °F - 43.0 °F 46% 29.97 in 10.0 mi SSW 4.6 mph - N/A   Mostly Cloudy
7:54 PM 59.0 °F - 42.1 °F 53% 30.00 in 10.0 mi WSW 6.9 mph - N/A   Mostly Cloudy
8:54 PM 62.1 °F - 39.9 °F 44% 30.01 in 10.0 mi NNW 4.6 mph - N/A   Mostly Cloudy
9:54 PM 55.9 °F - 41.0 °F 57% 30.05 in 10.0 mi SW 3.5 mph - N/A   Clear
10:54 PM 50.0 °F - 39.9 °F 68% 30.06 in 10.0 mi Calm Calm - N/A   Partly Cloudy
11:54 PM 51.1 °F - 39.9 °F 66% 30.07 in 10.0 mi ENE 4.6 mph - N/A   Scattered Clouds